Cloud_Cover
0 0 0 0 0 0 0 0 0 0 0 0 0 0 0 0 2 0 0 0 0 0 0 0 0 0 0 0 0 0 0 0 0 0 0 0 0 0 0 0 0 0 0 0 0
0 0 0 0 0 0 0 0 0 0 0 0 0 0 0 3 0 0 0 0 0 0 0 0 0 0 0 0 0 0 0 0 0 0 0 0 0 0 0 0 0 0 0 0 0
2 0 0 0 0 0 0 0 0 0 0 0 0 0 0 12 0 0 0 0 0 0 0 0 0 0 0 0 0 0 0 0 0 0 0 0 0 0 0 0 0 0 0 0 0
5 4 0 0 0 0 0 0 0 0 0 0 0 0 0 0 0 0 0 0 0 0 0 0 0 0 0 0 0 0 0 0 0 0 0 0 0 0 0 0 0 0 0 0 0
5 5 4 0 0 0 0 0 0 0 0 0 0 0 3 0 0 0 0 0 0 0 0 0 0 0 0 0 0 0 0 0 0 0 0 0 0 0 0 0 0 0 0 0 0
5 5 5 0 0 0 1 2 0 0 0 0 0 35 0 0 0 0 0 0 0 0 0 0 0 0 0 0 0 0 0 0 0 0 0 0 0 0 0 0 0 0 0 0 0
4 4 5 5 5 0 0 0 0 1 0 0 0 0 0 0 0 0 0 0 0 0 0 0 0 0 0 0 0 0 0 0 0 0 0 0 0 0 0 0 0 0 0 0 0
30 5 5 5 0 0 0 0 0 0 0 0 0 0 0 0 0 0 0 0 0 0 0 0 0 0 0 0 0 0 0 0 0 0 0 0 0 0 0 0 0 0 0 0 0
73 21 3 0 0 0 0 0 0 0 0 0 0 0 0 0 0 0 0 0 0 0 0 0 0 0 0 0 0 0 0 0 0 0 0 0 0 0 0 0 0 0 0 0 0
0 0 5 74 80 16 0 5 0 30 0 0 0 0 0 0 0 0 0 0 0 0 0 0 0 0 0 0 0 0 0 0 0 0 0 0 0 0 0 0 0 0 0 0 0
20 5 3 4 10 14 5 0 0 0 0 0 0 0 0 0 0 0 0 0 0 0 0 0 0 0 0 0 0 0 0 0 0 0 0 0 0 0 0 0 0 0 0 0 0
78 78 100 16 7 5 7 5 1 2 0 0 0 0 0 0 0 0 0 0 0 0 0 0 0 0 0 0 0 0 0 0 0 0 0 0 0 0 0 0 0 0 0 0 0
18 3 1 12 7 6 45 5 5 5 5 6 3 1 2 0 0 0 0 0 0 4 5 4 0 0 0 0 0 0 0 0 0 0 0 0 0 0 0 0 0 0 0 0 0
5 0 0 8 9 3 7 4 5 5 5 4 14 5 18 4 3 2 5 3 32 84 86 36 5 2 4 3 1 4 3 0 0 0 0 0 0 0 0 0 3 4 0 0 0
5 3 0 2 0 0 0 0 2 4 0 2 5 38 5 8 4 5 5 5 5 15 90 44 99 100 98 6 5 5 5 5 0 0 0 0 0 0 4 0 0 5 0 0 0
5 5 4 2 0 3 0 0 0 0 0 0 0 0 0 0 0 0 0 0 0 1 5 15 95 100 100 100 100 98 55 8 5 3 0 0 0 5 5 5 5 4 0 0 0
2 4 6 0 0 0 0 0 0 0 0 0 0 0 0 0 0 0 0 0 0 0 1 36 79 100 93 92 58 64 85 100 96 5 0 0 0 5 4 5 5 0 0 0 0
1 23 0 0 0 0 0 0 0 0 0 0 0 0 0 0 0 0 0 0 0 0 0 0 0 7 22 90 100 100 100 100 79 0 1 3 1 2 0 0 0 0 0 0 0
6 0 0 0 0 0 0 0 0 0 0 0 0 0 0 0 0 0 0 0 0 0 0 0 0 0 0 5 37 13 97 47 4 5 4 3 5 5 0 0 0 0 0 0 0
0 0 0 0 0 0 0 0 0 0 0 0 0 0 0 0 0 0 2 2 2 4 0 4 1 0 0 0 1 42 78 100 100 96 17 21 5 2 0 0 0 0 0 0 0
0 0 0 0 0 0 0 0 0 0 0 0 0 0 0 0 0 3 23 92 100 100 95 84 26 39 0 0 0 0 0 3 3 18 5 0 4 0 0 0 0 2 4 0 0
0 0 0 0 0 0 0 0 0 0 0 0 0 0 0 0 0 0 5 99 100 100 100 100 100 100 86 4 5 5 5 23 5 5 5 1 0 0 0 0 0 0 0 0 0
0 0 0 3 5 6 5 2 0 0 0 0 0 0 0 0 0 0 3 36 100 100 100 100 100 100 100 100 100 86 11 5 74 92 37 22 4 0 0 1 1 1 0 0 0
0 0 0 0 71 53 62 16 5 5 4 0 0 0 0 0 0 0 0 0 6 84 100 100 100 100 100 100 100 100 88 5 5 5 63 46 88 6 25 5 5 5 5 5 5
0 0 0 3 2 69 47 11 21 21 5 1 1 0 0 0 0 1 0 0 3 53 75 100 100 100 100 100 100 100 100 70 45 51 70 98 59 100 71 30 84 73 10 13 54
10 5 4 0 1 94 100 20 53 45 5 5 3 5 4 3 52 98 2 0 2 43 6 34 100 100 100 100 100 100 100 100 93 100 99 100 100 100 92 100 100 78 30 5 5
69 67 42 5 2 67 100 93 68 8 17 5 1 3 5 68 10 5 10 1 0 2 92 87 95 100 100 100 100 58 100 100 100 100 94 100 76 6 45 78 50 5 5 5 5